• In Czech Republic
  • List of Countries
  • For 7 days
  • Water Temperature
  • Satellite Maps
  • Weather Map
  • Weather Widgets
  • user-avatar
    Login

    Hourly Weather Folkern

    Today, 17 December, Sunday

    Time Temperature Precipitation Wind Pressure Humidity
    00:00 +7°C° 0 mm 11 mps 759 mmHg 88%
    01:00 +7°C° 1.3 mm 12 mps 758 mmHg 89%
    02:00 +7°C° 1.3 mm 13 mps 757 mmHg 90%
    03:00 +7°C° 1.3 mm 13 mps 756 mmHg 91%
    04:00 +8°C° 2 mm 13 mps 756 mmHg 92%
    05:00 +8°C° 2 mm 13 mps 755 mmHg 93%
    06:00 +8°C° 0 mm 12 mps 754 mmHg 94%
    07:00 +8°C° 0.4 mm 12 mps 755 mmHg 91%
    08:00 +8°C° 0.4 mm 12 mps 755 mmHg 88%
    09:00 +8°C° 0.4 mm 12 mps 756 mmHg 85%
    10:00 +7°C° 0.1 mm 12 mps 757 mmHg 78%
    11:00 +7°C° 0.1 mm 12 mps 758 mmHg 72%
    12:00 +6°C° 0 mm 11 mps 758 mmHg 66%
    13:00 +6°C° 0 mm 11 mps 759 mmHg 66%
    14:00 +6°C° 0 mm 10 mps 759 mmHg 66%
    15:00 +6°C° 0 mm 10 mps 760 mmHg 66%
    16:00 +6°C° 0 mm 9 mps 761 mmHg 66%
    17:00 +6°C° 0 mm 9 mps 761 mmHg 66%
    18:00 +6°C° 0 mm 9 mps 762 mmHg 66%
    19:00 +6°C° 0 mm 8 mps 762 mmHg 67%
    20:00 +6°C° 0 mm 8 mps 763 mmHg 68%
    21:00 +6°C° 0 mm 7 mps 763 mmHg 68%
    22:00 +6°C° 0 mm 7 mps 764 mmHg 69%
    23:00 +7°C° 0 mm 6 mps 765 mmHg 70%

    Tomorrow, 18 December, Monday

    Time Temperature Precipitation Wind Pressure Humidity
    00:00 +7°C° 0 mm 5 mps 765 mmHg 71%
    01:00 +7°C° 0 mm 6 mps 765 mmHg 73%
    02:00 +7°C° 0 mm 6 mps 766 mmHg 74%
    03:00 +7°C° 0 mm 6 mps 766 mmHg 75%
    04:00 +7°C° 0 mm 6 mps 766 mmHg 77%
    05:00 +6°C° 0 mm 7 mps 766 mmHg 79%
    06:00 +6°C° 0 mm 7 mps 766 mmHg 81%
    07:00 +7°C° 0 mm 8 mps 766 mmHg 82%
    08:00 +7°C° 0 mm 8 mps 766 mmHg 84%
    09:00 +7°C° 0 mm 9 mps 767 mmHg 86%
    10:00 +7°C° 0 mm 9 mps 767 mmHg 86%
    11:00 +7°C° 0 mm 10 mps 767 mmHg 86%
    12:00 +8°C° 0 mm 11 mps 767 mmHg 87%
    13:00 +8°C° 0.1 mm 11 mps 767 mmHg 87%
    14:00 +8°C° 0.1 mm 11 mps 767 mmHg 87%
    15:00 +8°C° 0.1 mm 11 mps 766 mmHg 87%
    16:00 +8°C° 0.1 mm 11 mps 766 mmHg 88%
    17:00 +8°C° 0.1 mm 11 mps 766 mmHg 89%
    18:00 +8°C° 0.1 mm 11 mps 766 mmHg 90%
    19:00 +8°C° 0.1 mm 11 mps 766 mmHg 90%
    20:00 +8°C° 0.1 mm 11 mps 766 mmHg 91%
    21:00 +8°C° 0.1 mm 11 mps 766 mmHg 92%
    22:00 +8°C° 0.1 mm 11 mps 766 mmHg 93%
    23:00 +9°C° 0.1 mm 11 mps 766 mmHg 93%

    Day after tomorrow, 19 December, Tuesday

    Time Temperature Precipitation Wind Pressure Humidity
    00:00 +9°C° 0.1 mm 11 mps 766 mmHg 93%
    01:00 +9°C° 0.1 mm 11 mps 766 mmHg 93%
    02:00 +9°C° 0.1 mm 11 mps 766 mmHg 93%
    03:00 +9°C° 0.1 mm 11 mps 766 mmHg 93%
    04:00 +9°C° 0 mm 11 mps 766 mmHg 93%
    05:00 +9°C° 0 mm 11 mps 766 mmHg 93%
    06:00 +9°C° 0 mm 12 mps 766 mmHg 93%
    07:00 +9°C° 0 mm 12 mps 766 mmHg 93%
    08:00 +9°C° 0 mm 12 mps 766 mmHg 93%
    09:00 +9°C° 0 mm 12 mps 765 mmHg 93%
    10:00 +9°C° 0 mm 12 mps 765 mmHg 92%
    11:00 +9°C° 0 mm 13 mps 765 mmHg 92%
    12:00 +9°C° 0 mm 13 mps 765 mmHg 91%
    13:00 +9°C° 0.2 mm 13 mps 764 mmHg 91%
    14:00 +10°C° 0.2 mm 13 mps 764 mmHg 91%
    15:00 +10°C° 0.2 mm 14 mps 764 mmHg 91%
    16:00 +10°C° 0.4 mm 14 mps 764 mmHg 91%
    17:00 +10°C° 0.4 mm 14 mps 764 mmHg 91%
    18:00 +10°C° 0.4 mm 14 mps 764 mmHg 92%
    19:00 +10°C° 0.6 mm 13 mps 764 mmHg 92%
    20:00 +9°C° 0.6 mm 12 mps 764 mmHg 93%
    21:00 +9°C° 0.6 mm 11 mps 765 mmHg 93%
    22:00 +10°C° 0.2 mm 9 mps 765 mmHg 92%
    23:00 +9°C° 0.2 mm 7 mps 766 mmHg 90%

    20 December, Wednesday

    Time Temperature Precipitation Wind Pressure Humidity
    00:00 +8°C° 0.2 mm 5 mps 767 mmHg 89%
    01:00 +8°C° 0.1 mm 4 mps 767 mmHg 87%
    02:00 +8°C° 0.1 mm 4 mps 768 mmHg 86%
    03:00 +9°C° 0.1 mm 3 mps 768 mmHg 84%
    04:00 +8°C° 0 mm 3 mps 768 mmHg 85%
    05:00 +7°C° 0 mm 4 mps 769 mmHg 86%
    06:00 +7°C° 0 mm 4 mps 769 mmHg 87%
    07:00 +7°C° 0 mm 5 mps 770 mmHg 86%
    08:00 +7°C° 0 mm 6 mps 770 mmHg 86%
    09:00 +8°C° 0 mm 6 mps 770 mmHg 85%
    10:00 +8°C° 0 mm 7 mps 771 mmHg 84%
    11:00 +7°C° 0 mm 8 mps 771 mmHg 83%
    12:00 +7°C° 0 mm 9 mps 771 mmHg 82%
    13:00 +7°C° 0.2 mm 9 mps 771 mmHg 82%
    14:00 +7°C° 0.2 mm 10 mps 771 mmHg 82%
    15:00 +7°C° 0.2 mm 10 mps 771 mmHg 83%
    16:00 +7°C° 0.1 mm 9 mps 771 mmHg 81%
    17:00 +7°C° 0.1 mm 9 mps 771 mmHg 80%
    18:00 +7°C° 0.1 mm 8 mps 772 mmHg 79%
    19:00 +7°C° 0 mm 8 mps 772 mmHg 77%
    20:00 +8°C° 0 mm 7 mps 772 mmHg 75%
    21:00 +7°C° 0 mm 6 mps 773 mmHg 73%
    22:00 +6°C° 0 mm 7 mps 773 mmHg 73%
    23:00 +6°C° 0 mm 7 mps 773 mmHg 73%

    21 December, Thursday

    Time Temperature Precipitation Wind Pressure Humidity
    00:00 +6°C° 0 mm 7 mps 773 mmHg 73%
    01:00 +6°C° 0.1 mm 7 mps 773 mmHg 72%
    02:00 +6°C° 0.1 mm 7 mps 773 mmHg 72%
    03:00 +6°C° 0.1 mm 7 mps 773 mmHg 71%
    04:00 +6°C° 0.1 mm 7 mps 773 mmHg 71%
    05:00 +6°C° 0.1 mm 8 mps 773 mmHg 71%
    06:00 +6°C° 0.1 mm 8 mps 773 mmHg 70%
    07:00 +6°C° 0.1 mm 8 mps 773 mmHg 69%
    08:00 +6°C° 0.1 mm 8 mps 773 mmHg 68%
    09:00 +6°C° 0.1 mm 8 mps 774 mmHg 67%
    10:00 +6°C° 0 mm 8 mps 774 mmHg 68%
    11:00 +6°C° 0 mm 8 mps 774 mmHg 68%
    12:00 +6°C° 0 mm 8 mps 774 mmHg 68%
    13:00 +6°C° 0 mm 8 mps 775 mmHg 68%
    14:00 +6°C° 0 mm 7 mps 775 mmHg 68%
    15:00 +6°C° 0 mm 7 mps 775 mmHg 69%
    16:00 +6°C° 0 mm 7 mps 775 mmHg 69%
    17:00 +6°C° 0 mm 7 mps 776 mmHg 69%
    18:00 +7°C° 0 mm 6 mps 776 mmHg 70%
    19:00 +5°C° 0 mm 6 mps 776 mmHg 70%
    20:00 +5°C° 0 mm 6 mps 776 mmHg 71%
    21:00 +6°C° 0 mm 5 mps 777 mmHg 72%
    22:00 +6°C° 0 mm 5 mps 777 mmHg 73%
    23:00 +6°C° 0 mm 4 mps 777 mmHg 74%

    22 December, Friday

    Time Temperature Precipitation Wind Pressure Humidity
    00:00 +6°C° 0 mm 4 mps 777 mmHg 75%
    01:00 +6°C° 0 mm 4 mps 777 mmHg 76%
    02:00 +7°C° 0 mm 3 mps 777 mmHg 77%
    03:00 +7°C° 0 mm 3 mps 777 mmHg 77%
    04:00 +7°C° 0 mm 2 mps 776 mmHg 78%
    05:00 +7°C° 0 mm 2 mps 776 mmHg 78%
    06:00 +6°C° 0 mm 2 mps 776 mmHg 79%
    07:00 +5°C° 0 mm 3 mps 776 mmHg 80%
    08:00 +5°C° 0 mm 4 mps 775 mmHg 81%
    09:00 +5°C° 0 mm 4 mps 775 mmHg 81%
    10:00 +5°C° 0 mm 5 mps 775 mmHg 81%
    11:00 +6°C° 0 mm 5 mps 775 mmHg 80%
    12:00 +5°C° 0 mm 6 mps 775 mmHg 80%
    13:00 +5°C° 0 mm 6 mps 775 mmHg 79%
    14:00 +5°C° 0 mm 6 mps 774 mmHg 79%
    15:00 +4°C° 0 mm 6 mps 774 mmHg 78%
    16:00 +4°C° 0 mm 6 mps 774 mmHg 78%
    17:00 +5°C° 0 mm 6 mps 774 mmHg 77%
    18:00 +5°C° 0 mm 6 mps 774 mmHg 77%
    19:00 +5°C° 0 mm 6 mps 774 mmHg 76%
    20:00 +5°C° 0 mm 6 mps 774 mmHg 76%
    21:00 +6°C° 0 mm 5 mps 774 mmHg 75%
    22:00 +5°C° 0 mm 6 mps 774 mmHg 76%
    23:00 +5°C° 0 mm 6 mps 774 mmHg 77%
    Show more